INTELSAT 39

Last updated on Tue Aug 27 2019 00:02:04 GMT+0000 (Coordinated Universal Time)

1 44476U 19049B 19238.11160513 -.00000123 00000-0 00000+0 0 9995 2 44476 0.1099 114.8561 0000390 16.0144 321.2611 1.00272400 248

Satellite not in orbit

INTELSAT 39